Asheville, NC

5:47 AM EDT on May 25, 2018 (GMT -0400)
Asheville Regional

Weather History for KAVL - August, 2012

Change the Weather History Date:

Sunday, August 19, 2012

  Actual Average Record
Temperature  
Mean Temperature 71 °F 73 °F  
Max Temperature 78 °F 83 °F 96 °F (1983)
Min Temperature 64 °F 63 °F 51 °F (1896)
Degree Days  
Heating Degree Days 0 0  
Month to date heating degree days 0 0  
Since 1 June heating degree days 9 14  
Since 1 July heating degree days 0 0  
Cooling Degree Days 6 8  
Month to date cooling degree days 151 163  
Year to date cooling degree days 835 673  
Since 1 June cooling degree days 711 615  
Growing Degree Days 20 (Base 50)    
Moisture  
Dew Point 63 °F    
Average Humidity 78    
Maximum Humidity 100    
Minimum Humidity 56    
Precipitation  
Precipitation 0.19 in 0.14 in 1.53 in (2016)
Month to date precipitation 2.58 2.69  
Year to date precipitation 28.68 29.90  
Snow  
Snow 0.00 in 0.00 in 0.00 in ()
Month to date snowfall 0.0 0.0  
Since 1 June snowfall 0.0 0.0  
Since 1 July snowfall 0.0 0.0  
Snow Depth 0.00 in    
Sea Level Pressure  
Sea Level Pressure 29.93 in    
Wind  
Wind Speed 3 mph (NW)    
Max Wind Speed 13 mph    
Max Gust Speed 16 mph    
Visibility 6 miles    
Events Fog , Rain    
T = Trace of Precipitation, MM = Missing Value Source: NWS Daily Summary

Daily Weather History Graph

Daily Weather History Graph

Search for Another Location

Airport or City:

Astronomy

Aug. 19, 2012 Rise Set
Actual Time 6:52 AM EDT 8:13 PM EDT
Civil Twilight 6:26 AM EDT 8:40 PM EDT
Nautical Twilight 5:54 AM EDT 9:12 PM EDT
Astronomical Twilight 5:20 AM EDT 9:45 PM EDT
Moon 8:58 AM EDT (8/19) 9:10 PM EDT (8/19)
Length of Visible Light 14h 14m
Length of Day
13h 20m
Waxing Crescent, 5% of the Moon is Illuminated
Aug 19
Waxing Crescent
Aug 24
First Quarter
Aug 31
Full
Sep 8
Last Quarter
Sep 15
New

Hourly Weather History & Observations

Time (EDT) Temp. Dew Point Humidity Pressure Visibility Wind Dir Wind Speed Gust Speed Precip Events Conditions
12:13 AM 64.4 °F 64.4 °F 100% 29.98 in 2.5 mi Calm Calm - N/A   Partly Cloudy
12:20 AM 66.2 °F 64.4 °F 94% 29.98 in 1.2 mi Calm Calm - N/A   Scattered Clouds
12:23 AM 64.4 °F 64.4 °F 100% 29.98 in 0.5 mi Calm Calm - N/A Fog Fog
12:26 AM 64.4 °F 64.4 °F 100% 29.98 in 0.2 mi Calm Calm - N/A Fog Fog
12:33 AM 66.2 °F 64.4 °F 94% 29.98 in 0.2 mi Calm Calm - N/A Fog Fog
12:40 AM 66.2 °F 64.4 °F 94% 29.99 in 0.5 mi Calm Calm - N/A Fog Fog
12:47 AM 64.4 °F 64.4 °F 100% 29.98 in 1.5 mi Calm Calm - N/A   Overcast
12:52 AM 64.4 °F 64.4 °F 100% 29.98 in 1.0 mi Calm Calm - N/A   Mist
12:54 AM 64.9 °F 64.9 °F 100% 29.91 in 0.8 mi Calm Calm - N/A   Mist
1:17 AM 64.4 °F 64.4 °F 100% 29.98 in 1.5 mi Calm Calm - N/A   Overcast
1:21 AM 64.4 °F 64.4 °F 100% 29.98 in 3.0 mi Calm Calm - N/A   Overcast
1:32 AM 66.2 °F 64.4 °F 94% 29.98 in 5.0 mi Calm Calm - N/A   Overcast
1:49 AM 66.2 °F 64.4 °F 94% 29.97 in 6.0 mi Calm Calm - N/A   Overcast
1:54 AM 66.0 °F 64.9 °F 96% 29.89 in 7.0 mi Calm Calm - N/A   Overcast
2:54 AM 66.0 °F 64.0 °F 93% 29.88 in 8.0 mi Calm Calm - N/A   Overcast
3:54 AM 64.9 °F 64.0 °F 97% 29.88 in 6.0 mi Calm Calm - N/A   Overcast
4:47 AM 64.4 °F 64.4 °F 100% 29.96 in 2.0 mi Calm Calm - 0.00 in Rain Light Rain
4:54 AM 66.0 °F 64.0 °F 93% 29.90 in 3.0 mi Calm Calm - 0.02 in Rain Rain
5:01 AM 64.4 °F 64.4 °F 100% 29.97 in 1.8 mi SW 4.6 mph - 0.01 in Rain Light Rain
5:06 AM 64.4 °F 64.4 °F 100% 29.97 in 1.0 mi SSW 3.5 mph - 0.01 in Rain Light Rain
5:13 AM 64.4 °F 64.4 °F 100% 29.97 in 1.5 mi Calm Calm - 0.02 in Rain Light Rain
5:16 AM 64.4 °F 64.4 °F 100% 29.97 in 2.5 mi Calm Calm - 0.02 in Rain Light Rain
5:22 AM 64.4 °F 64.4 °F 100% 29.97 in 3.0 mi Calm Calm - 0.03 in Rain Rain
5:45 AM 64.4 °F 64.4 °F 100% 29.95 in 7.0 mi Calm Calm - 0.06 in Rain Light Rain
5:54 AM 66.0 °F 64.0 °F 93% 29.89 in 8.0 mi Calm Calm - 0.06 in Rain Light Rain
6:09 AM 64.4 °F 64.4 °F 100% 29.96 in 5.0 mi SW 3.5 mph - 0.01 in Rain Light Rain
6:54 AM 64.9 °F 64.0 °F 97% 29.89 in 6.0 mi Calm Calm - 0.06 in Rain Light Rain
7:12 AM 64.4 °F 64.4 °F 100% 29.96 in 6.0 mi Calm Calm - 0.01 in Rain Light Rain
7:20 AM 64.4 °F 64.4 °F 100% 29.96 in 5.0 mi Calm Calm - 0.02 in Rain Light Rain
7:54 AM 64.9 °F 64.0 °F 97% 29.90 in 8.0 mi Calm Calm - 0.03 in Rain Light Rain
8:04 AM 64.4 °F 64.4 °F 100% 29.97 in 2.0 mi Calm Calm - 0.00 in Rain Light Rain
8:54 AM 64.0 °F 60.1 °F 87% 29.92 in 2.0 mi NNW 10.4 mph - 0.02 in   Overcast
9:01 AM 64.4 °F 59.0 °F 83% 29.98 in 10.0 mi North 8.1 mph - N/A   Overcast
9:03 AM 64.4 °F 59.0 °F 83% 29.98 in 2.0 mi North 10.4 mph - 0.00 in Rain Light Rain
9:54 AM 64.0 °F 60.1 °F 87% 29.92 in 2.0 mi NNW 9.2 mph - 0.00 in Rain Light Rain
10:01 AM 64.4 °F 59.0 °F 83% 29.98 in 10.0 mi NNW 9.2 mph - N/A   Overcast
10:54 AM 66.0 °F 57.9 °F 75% 29.91 in 10.0 mi NNW 3.5 mph - N/A   Overcast
11:54 AM 70.0 °F 59.0 °F 68% 29.91 in 10.0 mi Calm Calm - N/A   Overcast
12:54 PM 72.0 °F 60.1 °F 66% 29.90 in 10.0 mi Calm Calm - N/A   Mostly Cloudy
1:54 PM 75.2 °F 60.8 °F 61% 29.95 in 10.0 mi North 4.6 mph - N/A   Partly Cloudy
2:54 PM 75.0 °F 59.0 °F 57% 29.86 in 10.0 mi Calm Calm - N/A   Scattered Clouds
3:54 PM 77.0 °F 60.1 °F 56% 29.84 in 10.0 mi WNW 5.8 mph - N/A   Scattered Clouds
4:54 PM 75.0 °F 61.0 °F 62% 29.84 in 10.0 mi NW 3.5 mph - N/A   Overcast
5:54 PM 73.0 °F 61.0 °F 66% 29.84 in 10.0 mi NW 3.5 mph - N/A   Overcast
6:54 PM 72.0 °F 64.9 °F 78% 29.84 in 10.0 mi WSW 3.5 mph - N/A   Overcast
7:54 PM 68.0 °F 64.0 °F 87% 29.87 in 10.0 mi SW 3.5 mph - 0.00 in Rain Light Rain
8:54 PM 66.9 °F 62.1 °F 84% 29.88 in 10.0 mi West 3.5 mph - 0.00 in   Overcast
9:54 PM 66.9 °F 61.0 °F 81% 29.89 in 10.0 mi Calm Calm - N/A   Overcast
10:54 PM 66.0 °F 62.1 °F 87% 29.90 in 10.0 mi NNW 6.9 mph - N/A   Overcast
11:54 PM 64.9 °F 62.1 °F 90% 29.89 in 10.0 mi NNW 4.6 mph - N/A   Mostly Cloudy